| time (UTC) | temp C | wind direction | speed KPH | gust KPH | rain 1hr cm | rain 24hr cm | rain mn cm | humidity % | barometer mb |
| 20260504173005 | 15 | 284 | 1.6 | 3.2 | 0.00 | 0.64 | 0.64 | 99 | 1013.4 |
| 20260504171505 | 15 | 112 | 0.0 | 3.2 | 0.00 | 0.64 | 0.64 | 99 | 1013.7 |
| 20260504081506 | 20 | 244 | 0.0 | 6.4 | 0.00 | 0.00 | 0.00 | 70 | 1014.4 |
| 20260504044505 | 11 | 295 | 3.2 | 6.4 | 0.00 | 0.00 | 0.00 | 99 | 1015.3 |
| 20260504043005 | 11 | 314 | 3.2 | 6.4 | 0.00 | 0.00 | 0.00 | 99 | 1015.5 |
| 20260504041505 | 11 | 291 | 1.6 | 3.2 | 0.00 | 0.00 | 0.00 | 99 | 1015.4 |
| 20260504034505 | 11 | 345 | 0.0 | 3.2 | 0.00 | 0.00 | 0.00 | 99 | 1015.7 |
| 20260504033006 | 11 | 287 | 1.6 | 6.4 | 0.00 | 0.00 | 0.00 | 99 | 1015.7 |
| 20260504031505 | 11 | 344 | 3.2 | 6.4 | 0.00 | 0.00 | 0.00 | 99 | 1015.7 |
| 20260504030005 | 11 | 294 | 1.6 | 3.2 | 0.00 | 0.00 | 0.00 | 99 | 1016.0 |
| 20260504020005 | 12 | 320 | 1.6 | 3.2 | 0.00 | 0.00 | 0.00 | 99 | 1016.1 |
| 20260504014506 | 12 | 301 | 3.2 | 6.4 | 0.00 | 0.00 | 0.00 | 99 | 1016.2 |
| 20260504011505 | 12 | 325 | 1.6 | 6.4 | 0.00 | 0.00 | 0.00 | 99 | 1016.2 |
| 20260504010005 | 12 | 295 | 3.2 | 6.4 | 0.00 | 0.00 | 0.00 | 99 | 1016.4 |
| 20260504004505 | 12 | 281 | 1.6 | 3.2 | 0.00 | 0.00 | 0.00 | 99 | 1016.6 |
| 20260504003005 | 12 | 331 | 1.6 | 6.4 | 0.00 | 0.00 | 0.00 | 99 | 1016.6 |
| 20260504001505 | 12 | 293 | 0.0 | 6.4 | 0.00 | 0.00 | 0.00 | 99 | 1016.9 |
| 20260504000005 | 12 | 340 | 1.6 | 9.7 | 0.00 | 0.00 | 0.00 | 99 | 1016.8 |
| 20260503234505 | 13 | 326 | 3.2 | 3.2 | 0.00 | 0.00 | 0.00 | 99 | 1017.0 |
| 20260503233005 | 13 | 270 | 0.0 | 3.2 | 0.00 | 0.00 | 0.00 | 99 | 1017.4 |
| 20260503231506 | 13 | 0 | 0.0 | 0.0 | 0.00 | 0.00 | 0.00 | 99 | 1017.4 |
| 20260503230006 | 13 | 273 | 0.0 | 3.2 | 0.00 | 0.00 | 0.00 | 99 | 1017.6 |
| 20260503224504 | 13 | 318 | 0.0 | 3.2 | 0.00 | 0.00 | 0.00 | 98 | 1017.9 |
| 20260503223005 | 13 | 310 | 0.0 | 3.2 | 0.00 | 0.00 | 0.00 | 98 | 1017.8 |
| 20260503221505 | 13 | 10 | 3.2 | 6.4 | 0.00 | 0.00 | 0.00 | 97 | 1018.1 |
| 20260503220007 | 13 | 68 | 3.2 | 3.2 | 0.00 | 0.00 | 0.00 | 97 | 1017.9 |
| 20260503214506 | 13 | 164 | 0.0 | 3.2 | 0.00 | 0.00 | 0.00 | 96 | 1018.1 |
| 20260503213005 | 13 | 133 | 3.2 | 6.4 | 0.00 | 0.00 | 0.00 | 95 | 1018.0 |
| 20260503211505 | 13 | 115 | 3.2 | 6.4 | 0.00 | 0.00 | 0.00 | 98 | 1018.3 |
| 20260503210006 | 13 | 90 | 0.0 | 3.2 | 0.00 | 0.00 | 0.00 | 97 | 1018.1 |
| 20260503204505 | 13 | 298 | 0.0 | 3.2 | 0.00 | 0.00 | 0.00 | 96 | 1018.3 |
| 20260503203005 | 13 | 4 | 1.6 | 3.2 | 0.00 | 0.00 | 0.00 | 96 | 1018.3 |
| 20260503201504 | 13 | 94 | 1.6 | 3.2 | 0.00 | 0.00 | 0.00 | 95 | 1018.0 |
| 20260503200006 | 13 | 90 | 1.6 | 3.2 | 0.00 | 0.00 | 0.00 | 94 | 1018.0 |
| 20260503194505 | 13 | 173 | 0.0 | 3.2 | 0.00 | 0.00 | 0.00 | 93 | 1017.9 |
| 20260503193005 | 13 | 95 | 1.6 | 3.2 | 0.00 | 0.00 | 0.00 | 93 | 1017.6 |
| 20260503191504 | 14 | 78 | 3.2 | 6.4 | 0.00 | 0.00 | 0.00 | 91 | 1017.5 |
| 20260503190005 | 14 | 97 | 3.2 | 6.4 | 0.00 | 0.00 | 0.00 | 94 | 1017.6 |
| 20260503184504 | 14 | 100 | 3.2 | 6.4 | 0.00 | 0.00 | 0.00 | 94 | 1017.7 |
| 20260503183005 | 14 | 94 | 4.8 | 6.4 | 0.00 | 0.00 | 0.00 | 93 | 1017.4 |
| 20260503174504 | 15 | 91 | 11.3 | 14.5 | 0.00 | 0.00 | 0.00 | 87 | 1017.3 |